St.-Anicet, Quebec

8:31 AM EDT on October 17, 2017 (GMT -0400)
St.-Anicet

Weather History for CWBZ - November, 2012

Change the Weather History Date:

Saturday, November 24, 2012

  Actual Average Record
Temperature  
Mean Temperature 32 °F -  
Max Temperature 35 °F - - ()
Min Temperature 28 °F - - ()
Degree Days  
Heating Degree Days 34    
Moisture  
Dew Point 26 °F    
Average Humidity 71    
Maximum Humidity 91    
Minimum Humidity 51    
Precipitation  
Precipitation 0.00 in - - ()
Sea Level Pressure  
Sea Level Pressure 29.61 in    
Wind  
Wind Speed 12 mph ()    
Max Wind Speed 18 mph    
Max Gust Speed -    
T = Trace of Precipitation, MM = Missing Value Source: Averaged Metar Reports

Daily Weather History Graph

Daily Weather History Graph

Search for Another Location

Airport or City:

Trip Planner

Search our weather history database for the weather conditions in past years. The results will help you decide how hot, cold, wet, or windy it might be!

Date:

Astronomy

Nov. 24, 2012 Rise Set
Actual Time 7:07 AM EST 4:19 PM EST
Civil Twilight 6:34 AM EST 4:52 PM EST
Nautical Twilight 5:58 AM EST 5:29 PM EST
Astronomical Twilight 5:23 AM EST 6:04 PM EST
Moon 2:10 PM EST (11/24) 3:13 AM EST (11/24)
Length of Visible Light 10h 17m
Length of Day
9h 12m
Waxing Gibbous, 87% of the Moon is Illuminated
Nov 24
Waxing Gibbous
Nov 28
Full
Dec 6
Last Quarter
Dec 13
New
Dec 20
First Quarter

Hourly Weather History & Observations

Time (EST) Temp. Windchill Dew Point Humidity Pressure Visibility Wind Dir Wind Speed Gust Speed Precip Events Conditions
12:00 AM 44.4 °F 40.5 °F 36.5 °F 74% 29.55 in - SW 6.9 mph - N/A   Unknown
1:00 AM 41 °F - 33 °F 64% 29.55 in - SW 16.1 mph - -  
1:00 AM 41.4 °F 33.3 °F 33.1 °F 72% 29.55 in - SW 16.1 mph - N/A   Unknown
2:00 AM 39.9 °F 32.1 °F 31.1 °F 71% 29.56 in - SW 13.8 mph - N/A   Unknown
4:00 AM 36.3 °F 28.0 °F 30.0 °F 78% 29.55 in - SW 12.7 mph - N/A   Unknown
5:00 AM 35.6 °F 27.1 °F 29.1 °F 77% 29.54 in - SW 12.7 mph - N/A   Unknown
6:00 AM 36.0 °F 27.1 °F 29.1 °F 76% 29.54 in - SW 13.8 mph - N/A   Unknown
7:00 AM 36 °F - 29 °F 65% 29.55 in - WSW 13.8 mph - -  
7:00 AM 35.6 °F 26.6 °F 28.6 °F 76% 29.55 in - WSW 13.8 mph - N/A   Unknown
8:00 AM 34.5 °F 25.3 °F 29.1 °F 81% 29.56 in - WSW 13.8 mph - N/A   Unknown
9:00 AM 33.8 °F 24.3 °F 25.9 °F 73% 29.58 in - West 13.8 mph - N/A   Unknown
10:00 AM 34.0 °F 25.0 °F 24.4 °F 68% 29.60 in - West 12.7 mph - N/A   Unknown
11:00 AM 34.2 °F 24.8 °F 24.3 °F 67% 29.60 in - West 13.8 mph - N/A   Unknown
12:00 PM 33.8 °F 23.5 °F 24.8 °F 70% 29.60 in - West 16.1 mph - N/A   Unknown
1:00 PM 34 °F - 23 °F 51% 29.60 in - West 17.3 mph - -  
1:00 PM 33.6 °F 22.9 °F 22.6 °F 64% 29.60 in - West 17.3 mph - N/A   Unknown
2:00 PM 28.4 °F 17.0 °F 26.1 °F 91% 29.61 in - WNW 15.0 mph - N/A   Unknown
3:00 PM 31.5 °F 21.4 °F 23.7 °F 73% 29.62 in - West 13.8 mph - N/A   Unknown
4:00 PM 31.8 °F 21.8 °F 22.1 °F 67% 29.63 in - West 13.8 mph - N/A   Unknown
5:00 PM 31.3 °F 19.5 °F 21.9 °F 68% 29.66 in - West 18.4 mph - N/A   Unknown
6:00 PM 30.4 °F 19.5 °F 22.1 °F 71% 29.68 in - West 15.0 mph - N/A   Unknown
7:00 PM 30 °F - 22 °F 62% 29.69 in - West 16.1 mph - -  
7:00 PM 30.0 °F 18.7 °F 22.1 °F 72% 29.69 in - West 16.1 mph - N/A   Unknown
8:00 PM 29.7 °F 18.6 °F 21.6 °F 72% 29.70 in - West 15.0 mph - N/A   Unknown
9:00 PM 29.1 °F 18.4 °F 20.7 °F 71% 29.71 in - West 13.8 mph - N/A   Unknown
10:00 PM 28.9 °F 18.2 °F 20.7 °F 71% 29.72 in - West 13.8 mph - N/A   Unknown
11:00 PM 28.2 °F 17.2 °F 18.3 °F 66% 29.72 in - West 13.8 mph - N/A   Unknown